SCP
1 1 0 0 -2 1 4 4 4 4 4 4 4 5 5 3 2 1 0 0 0 0 0 0 0 0 0 0 0 0 0 0 0 0 0 0 0 0 -0 0 0 0 0
0 0 0 -0 -0 5 6 4 4 6 6 4 3 3 2 1 0 0 0 0 0 0 0 0 0 0 0 0 0 0 0 0 0 0 0 0 0 0 0 0 0 0 0
0 -0 0 0 3 2 2 2 2 2 4 2 2 1 1 1 1 0 0 0 0 0 0 0 0 0 0 0 0 0 0 0 0 0 0 0 0 -0 0 0 0 0 0
-0 0 1 1 1 1 1 1 1 1 1 1 2 2 2 1 0 0 0 0 0 0 0 0 0 0 0 0 0 0 0 0 0 0 0 0 0 0 -0 0 0 0 0
1 1 0 0 0 0 0 0 0 0 0 0 0 1 0 0 0 0 0 0 0 0 0 0 0 0 0 0 0 0 0 0 0 0 0 0 0 0 0 0 0 0 0
0 0 0 0 0 0 0 0 0 0 0 0 0 0 0 0 0 0 0 0 0 0 0 0 0 0 0 0 0 0 0 0 0 0 0 0 0 0 0 0 -0 0 0
0 0 0 0 0 0 0 0 0 0 0 0 0 0 0 0 0 0 0 0 0 0 0 0 0 0 0 0 0 0 0 0 0 0 0 0 0 0 0 0 -0 0 0
0 0 0 0 0 0 0 0 0 0 0 0 0 0 0 0 0 0 0 0 0 0 0 0 0 0 0 0 0 0 0 0 0 0 0 0 0 0 0 -0 -0 -0 0
0 0 0 0 0 0 0 0 0 0 0 0 0 0 0 0 0 0 0 0 0 0 0 0 0 0 0 0 0 0 0 0 0 0 0 0 0 0 0 0 0 0 0
0 0 0 0 0 0 0 0 0 0 0 0 0 0 0 0 0 0 0 0 0 0 0 0 0 0 0 0 0 0 0 0 0 0 0 0 0 0 0 0 0 0 0
0 0 0 0 0 0 0 0 0 0 0 0 0 0 0 0 0 0 0 0 0 0 0 0 0 0 0 0 0 0 0 0 0 0 0 0 0 0 0 0 0 0 0
0 0 0 0 0 0 0 0 0 0 0 0 0 0 0 0 0 0 0 0 0 0 0 0 0 0 0 0 0 0 0 0 0 0 0 0 0 0 0 0 0 0 0
0 0 0 0 0 0 0 0 0 0 0 0 0 0 0 0 0 0 0 0 0 0 0 0 0 0 0 0 0 0 0 0 0 0 0 0 0 0 0 0 0 0 0
0 0 0 0 0 0 0 0 0 0 0 0 0 0 0 0 0 0 0 0 0 0 0 0 0 0 0 0 0 0 0 0 0 0 0 0 0 0 0 0 0 0 0
0 0 0 0 0 0 0 0 0 0 0 0 0 0 0 0 0 0 0 0 0 0 0 0 0 0 0 0 0 0 0 0 0 0 0 0 0 0 0 0 0 0 0
0 0 0 0 0 0 0 0 0 0 0 0 0 0 0 0 0 0 0 0 0 0 0 0 0 0 0 0 0 0 0 0 0 0 0 0 0 0 0 0 0 0 0
1 1 0 0 0 0 0 0 0 0 0 0 0 0 0 0 0 0 0 0 0 0 0 0 0 0 0 0 0 0 0 0 0 0 0 0 0 0 0 0 0 0 0
1 1 0 0 0 0 0 0 0 0 0 0 0 0 0 0 0 0 0 0 0 0 0 0 0 0 0 0 0 0 0 0 0 0 0 0 0 0 0 0 0 0 0
1 1 0 0 0 0 0 0 0 0 0 0 0 0 0 0 0 0 0 0 0 0 0 0 0 0 0 0 0 0 0 0 0 0 0 0 0 0 0 0 0 0 0
0 0 0 0 0 0 0 0 0 0 0 0 0 0 0 0 0 0 0 0 0 0 0 0 0 0 0 0 0 0 0 0 0 0 0 0 0 0 -0 0 0 0 0
0 0 0 0 0 0 0 0 0 0 0 0 0 0 0 0 0 0 0 0 0 0 0 0 0 0 0 0 0 0 0 0 0 0 0 0 0 -0 0 0 0 0 0
0 0 0 0 0 0 0 0 0 0 0 0 0 0 0 0 0 0 0 0 0 0 0 0 0 0 0 0 0 0 0 0 0 0 0 0 0 0 0 0 0 0 0
0 0 0 0 0 0 0 0 0 0 0 0 0 0 0 0 0 0 0 0 0 0 0 0 0 0 0 0 0 0 0 0 0 0 0 0 0 0 0 0 0 0 0
0 0 0 0 0 0 0 0 0 0 0 0 0 0 0 0 0 0 0 0 0 0 0 0 0 0 0 0 0 0 0 0 0 0 0 0 0 0 0 0 0 0 0
0 0 0 0 0 0 0 0 0 0 0 0 0 0 0 0 0 0 0 0 0 0 0 0 0 0 0 0 0 0 0 0 0 0 0 0 0 0 0 0 0 0 0
0 0 0 0 0 0 0 0 0 0 0 0 0 0 0 0 0 0 0 0 0 0 0 0 0 0 0 0 0 0 0 0 0 0 0 0 0 0 0 0 0 0 0
Wind_Speed_500mb
11 11 68 39 39 43 48 36 32 35 25 27 25 33 33 25 37 33 41 47 42 38 45 47 47 45 48 43 40 49 41 37 34 41 52 54 23 16 27 43 36 36 43
29 33 23 49 30 41 43 41 31 33 39 36 35 30 24 23 25 33 38 40 39 44 42 43 40 44 46 30 40 35 35 37 34 38 45 28 38 25 55 56 37 38 47
27 41 36 9 23 30 31 27 30 22 26 17 15 13 21 23 26 34 39 35 41 41 35 37 35 39 32 33 35 36 37 39 38 28 26 20 22 67 48 53 42 62 65
48 43 27 20 17 8 13 12 7 11 13 15 14 12 12 21 24 20 30 38 38 36 33 34 32 32 35 29 30 30 34 38 38 39 29 34 46 47 41 62 75 70 70
34 33 24 23 22 18 3 6 6 11 13 10 15 11 18 4 17 25 27 27 29 31 26 29 37 31 34 31 25 28 32 31 35 36 37 42 43 47 51 59 74 75 72
26 30 28 26 27 24 13 17 14 10 7 7 11 20 18 19 20 25 15 24 9 19 25 38 42 35 36 33 32 32 32 31 35 38 39 35 42 50 58 50 75 75 78
26 26 26 25 24 21 16 18 17 17 11 6 6 10 10 12 11 22 21 23 21 18 28 39 36 33 37 30 33 37 35 35 36 40 42 41 39 44 45 55 76 61 75
29 27 25 23 23 21 19 16 16 14 9 3 2 5 5 8 7 20 22 15 25 23 33 36 38 31 29 36 33 37 32 40 46 43 39 43 47 43 41 54 64 60 54
34 31 30 27 24 22 21 20 18 12 4 5 9 12 14 13 16 19 21 19 25 30 30 32 28 30 30 34 33 39 40 43 45 45 44 49 46 37 49 50 58 58 54
37 33 30 29 24 23 21 18 12 9 5 2 4 5 13 19 17 18 20 26 29 30 30 30 32 32 28 34 39 34 47 45 39 48 47 45 48 42 43 56 59 56 65
38 35 31 28 25 22 18 14 10 5 3 3 6 12 14 14 18 13 22 29 30 29 30 31 31 30 30 33 39 42 36 42 43 42 44 48 48 51 53 55 50 57 59
36 33 29 28 25 24 18 18 16 8 8 7 11 14 15 12 17 20 21 27 29 29 28 26 26 28 32 37 36 37 43 50 39 43 43 48 40 42 52 54 56 57 55
37 31 28 24 23 20 18 12 12 13 10 5 13 15 16 12 14 18 22 22 27 29 34 32 31 32 34 36 42 44 54 60 35 38 44 43 39 53 55 54 51 51 55
36 31 26 23 21 19 16 13 12 9 9 13 10 12 13 18 18 17 25 27 30 31 33 32 30 29 29 46 50 59 59 45 24 39 40 39 39 45 48 46 49 52 47
36 34 27 23 20 19 16 14 15 12 13 5 8 12 15 16 20 23 26 25 26 30 32 32 30 35 46 43 54 50 50 39 36 35 39 38 48 43 41 46 52 52 45
35 32 27 24 21 19 16 14 16 9 13 7 9 9 14 16 18 24 24 29 30 38 34 31 33 42 51 51 53 52 51 39 41 44 48 48 43 40 45 51 52 51 44
34 31 26 25 23 22 20 21 10 12 6 7 7 12 15 19 21 24 28 29 34 37 37 33 35 46 53 55 55 53 48 47 48 52 55 56 54 53 53 52 58 59 48
32 30 27 26 26 24 21 17 10 6 6 7 10 13 16 20 23 25 26 31 33 34 38 38 37 50 58 52 54 58 56 45 61 57 56 53 52 55 54 56 57 62 53
29 29 28 30 27 21 16 8 1 8 5 9 12 14 16 21 24 24 30 33 32 36 35 36 42 46 51 52 47 47 60 50 62 62 65 51 51 48 53 56 65 57 45
31 32 32 28 23 20 11 7 4 4 5 10 12 14 18 23 26 27 31 35 31 33 35 38 41 47 43 26 33 52 63 73 76 75 60 53 58 59 65 67 54 46 48
32 32 29 24 20 14 10 9 4 8 13 10 11 14 19 24 23 29 34 32 33 38 46 49 47 29 32 38 49 58 69 75 72 64 60 55 54 53 46 47 43 39 40
33 28 27 24 17 12 12 8 5 5 8 9 12 17 21 24 22 33 30 34 38 33 34 35 36 31 43 51 54 58 59 58 56 55 52 44 53 48 42 36 35 33 27
30 26 23 19 16 15 14 9 2 4 8 12 16 20 22 24 25 29 29 30 31 30 38 37 34 39 43 47 51 62 58 54 52 54 43 44 52 47 39 37 34 26 28
27 23 23 18 12 8 7 4 2 7 11 15 17 19 18 26 22 31 28 33 33 34 31 28 33 38 38 40 64 59 58 52 51 54 53 43 38 33 33 32 32 30 25
25 22 19 16 10 9 6 3 4 8 12 16 19 21 24 20 27 28 32 35 35 36 29 34 41 43 48 48 61 53 58 53 50 53 48 49 50 48 40 32 27 23 26
24 23 18 15 11 8 4 1 5 7 12 17 18 23 23 23 28 30 33 37 41 25 32 41 48 52 48 53 57 49 55 51 50 48 49 49 49 48 44 41 36 25 25
Wind_Direction_500mb
72 59 7 64 159 197 184 179 191 204 195 217 213 207 224 221 241 249 266 282 282 295 302 306 315 311 319 324 310 310 323 333 350 329 319 332 342 359 302 315 338 336 319
80 167 234 231 143 138 163 182 190 186 194 217 210 221 243 241 248 251 277 283 294 300 308 315 323 319 328 328 315 337 341 338 345 337 335 337 335 309 340 347 347 321 325
90 124 141 154 153 184 203 217 222 212 206 229 252 255 275 248 245 268 274 296 304 311 317 320 322 330 334 323 337 338 335 338 339 339 344 332 316 330 335 340 336 344 338
115 120 132 109 107 111 225 222 215 225 195 200 238 258 234 247 257 246 281 301 318 330 332 316 331 323 330 323 331 329 328 329 335 337 340 329 330 326 322 329 336 337 340
101 109 107 103 101 105 151 151 187 213 220 224 215 188 224 293 289 279 295 335 343 342 334 301 322 312 330 331 321 323 326 326 334 333 332 331 332 325 323 316 332 336 336
101 101 101 98 97 99 88 100 111 141 175 212 219 233 262 252 253 288 323 279 298 267 294 296 314 309 321 318 327 321 314 318 324 327 330 325 326 328 313 321 330 332 335
118 113 112 111 110 105 92 89 99 109 119 150 210 250 279 303 304 310 304 317 316 313 288 294 304 304 323 322 319 326 326 322 322 329 326 323 318 322 329 319 324 318 333
135 135 134 130 128 125 129 125 110 109 127 146 318 311 291 294 291 306 325 354 303 301 291 295 305 318 314 314 312 311 313 323 320 321 325 318 318 318 329 320 321 318 327
142 144 142 140 136 133 130 133 142 147 120 34 1 348 343 339 326 328 332 304 310 310 309 327 329 313 312 308 315 311 320 319 316 314 319 317 320 315 320 323 322 324 322
150 149 148 144 141 140 138 136 140 127 132 34 344 359 326 323 323 333 337 326 325 336 337 336 331 329 330 319 321 322 325 322 316 321 313 309 313 311 315 318 319 322 321
154 154 150 146 147 140 145 147 141 95 12 66 301 320 319 312 329 319 323 336 343 351 347 344 333 329 331 320 313 318 314 303 313 317 310 308 309 311 315 322 326 319 324
156 157 153 150 148 151 151 159 163 169 223 301 308 318 326 338 324 341 337 336 343 346 336 331 329 329 325 323 315 304 302 316 308 319 302 309 317 317 317 319 322 314 320
156 159 156 158 159 160 163 167 148 196 257 280 304 333 356 348 323 318 330 335 328 348 350 349 350 343 344 313 308 309 315 317 313 324 312 315 310 318 320 319 319 318 319
157 161 161 166 166 170 172 173 199 225 281 325 336 351 297 330 343 326 309 332 351 347 344 348 347 335 326 323 317 322 324 327 331 318 313 318 317 326 317 316 322 322 318
162 161 166 170 173 175 180 186 217 272 315 331 301 303 342 324 320 331 333 329 329 333 337 339 342 317 328 319 346 350 348 344 333 325 322 317 310 311 310 315 320 327 324
166 168 170 174 182 188 189 199 247 307 300 312 341 331 327 325 323 328 330 326 317 323 337 331 327 325 330 336 345 353 351 342 338 330 321 316 317 312 309 308 314 324 323
165 164 170 177 187 191 194 225 253 280 307 17 338 319 325 324 322 319 324 327 321 322 324 322 324 319 328 329 328 336 348 347 333 328 328 323 319 312 312 313 313 320 307
148 158 168 175 184 183 201 221 244 266 27 340 320 322 320 319 320 328 325 315 320 321 319 323 321 316 326 324 321 332 337 331 333 329 327 325 316 316 316 316 318 321 316
146 156 167 177 176 194 201 213 57 59 336 318 317 315 320 320 324 323 316 324 327 326 332 322 315 308 326 312 315 325 331 332 322 322 324 320 318 311 307 311 314 318 316
141 149 163 161 174 189 187 129 69 227 306 293 309 321 324 322 319 331 323 322 324 325 313 321 329 331 322 321 325 333 334 331 328 327 327 321 316 311 309 311 316 312 314
142 149 151 156 170 177 164 164 163 234 276 321 316 326 318 316 336 308 320 333 332 330 332 331 334 321 357 351 343 336 330 326 327 329 329 325 320 316 317 318 320 310 313
143 146 148 162 172 153 125 171 241 342 330 327 335 319 321 320 317 326 333 335 335 340 331 333 346 343 346 336 327 325 335 341 344 343 345 348 343 340 342 334 323 335 328
147 151 156 148 151 164 169 101 313 345 331 341 327 326 323 328 315 330 327 339 330 332 341 340 335 328 327 324 323 337 343 345 350 345 342 341 353 354 348 333 336 335 326
151 150 152 155 155 153 114 136 317 325 346 326 325 323 331 325 336 338 337 322 321 314 321 328 334 338 335 330 339 342 343 345 350 351 358 349 335 336 338 339 340 333 327
152 158 154 159 162 134 171 187 291 347 338 329 350 328 315 332 342 336 330 328 315 312 321 341 351 346 345 340 342 342 343 340 348 346 350 354 357 359 356 347 338 341 329
158 156 152 144 155 161 171 252 326 334 340 345 330 334 345 343 337 335 342 336 324 327 351 354 348 345 342 341 343 344 346 347 342 343 351 352 354 352 351 350 348 336 326
Wind_Speed_850mb
11 11 68 39 39 43 48 36 32 35 25 27 25 33 33 25 37 33 41 47 42 38 45 47 47 45 48 43 40 49 41 37 34 41 52 54 23 16 27 43 36 36 43
29 33 23 49 30 41 43 41 31 33 39 36 35 30 24 23 25 33 38 40 39 44 42 43 40 44 46 30 40 35 35 37 34 38 45 28 38 25 55 56 37 38 47
27 41 36 9 23 30 31 27 30 22 26 17 15 13 21 23 26 34 39 35 41 41 35 37 35 39 32 33 35 36 37 39 38 28 26 20 22 67 48 53 42 62 65
48 43 27 20 17 8 13 12 7 11 13 15 14 12 12 21 24 20 30 38 38 36 33 34 32 32 35 29 30 30 34 38 38 39 29 34 46 47 41 62 75 70 70
34 33 24 23 22 18 3 6 6 11 13 10 15 11 18 4 17 25 27 27 29 31 26 29 37 31 34 31 25 28 32 31 35 36 37 42 43 47 51 59 74 75 72
26 30 28 26 27 24 13 17 14 10 7 7 11 20 18 19 20 25 15 24 9 19 25 38 42 35 36 33 32 32 32 31 35 38 39 35 42 50 58 50 75 75 78
26 26 26 25 24 21 16 18 17 17 11 6 6 10 10 12 11 22 21 23 21 18 28 39 36 33 37 30 33 37 35 35 36 40 42 41 39 44 45 55 76 61 75
29 27 25 23 23 21 19 16 16 14 9 3 2 5 5 8 7 20 22 15 25 23 33 36 38 31 29 36 33 37 32 40 46 43 39 43 47 43 41 54 64 60 54
34 31 30 27 24 22 21 20 18 12 4 5 9 12 14 13 16 19 21 19 25 30 30 32 28 30 30 34 33 39 40 43 45 45 44 49 46 37 49 50 58 58 54
37 33 30 29 24 23 21 18 12 9 5 2 4 5 13 19 17 18 20 26 29 30 30 30 32 32 28 34 39 34 47 45 39 48 47 45 48 42 43 56 59 56 65
38 35 31 28 25 22 18 14 10 5 3 3 6 12 14 14 18 13 22 29 30 29 30 31 31 30 30 33 39 42 36 42 43 42 44 48 48 51 53 55 50 57 59
36 33 29 28 25 24 18 18 16 8 8 7 11 14 15 12 17 20 21 27 29 29 28 26 26 28 32 37 36 37 43 50 39 43 43 48 40 42 52 54 56 57 55
37 31 28 24 23 20 18 12 12 13 10 5 13 15 16 12 14 18 22 22 27 29 34 32 31 32 34 36 42 44 54 60 35 38 44 43 39 53 55 54 51 51 55
36 31 26 23 21 19 16 13 12 9 9 13 10 12 13 18 18 17 25 27 30 31 33 32 30 29 29 46 50 59 59 45 24 39 40 39 39 45 48 46 49 52 47
36 34 27 23 20 19 16 14 15 12 13 5 8 12 15 16 20 23 26 25 26 30 32 32 30 35 46 43 54 50 50 39 36 35 39 38 48 43 41 46 52 52 45
35 32 27 24 21 19 16 14 16 9 13 7 9 9 14 16 18 24 24 29 30 38 34 31 33 42 51 51 53 52 51 39 41 44 48 48 43 40 45 51 52 51 44
34 31 26 25 23 22 20 21 10 12 6 7 7 12 15 19 21 24 28 29 34 37 37 33 35 46 53 55 55 53 48 47 48 52 55 56 54 53 53 52 58 59 48
32 30 27 26 26 24 21 17 10 6 6 7 10 13 16 20 23 25 26 31 33 34 38 38 37 50 58 52 54 58 56 45 61 57 56 53 52 55 54 56 57 62 53
29 29 28 30 27 21 16 8 1 8 5 9 12 14 16 21 24 24 30 33 32 36 35 36 42 46 51 52 47 47 60 50 62 62 65 51 51 48 53 56 65 57 45
31 32 32 28 23 20 11 7 4 4 5 10 12 14 18 23 26 27 31 35 31 33 35 38 41 47 43 26 33 52 63 73 76 75 60 53 58 59 65 67 54 46 48
32 32 29 24 20 14 10 9 4 8 13 10 11 14 19 24 23 29 34 32 33 38 46 49 47 29 32 38 49 58 69 75 72 64 60 55 54 53 46 47 43 39 40
33 28 27 24 17 12 12 8 5 5 8 9 12 17 21 24 22 33 30 34 38 33 34 35 36 31 43 51 54 58 59 58 56 55 52 44 53 48 42 36 35 33 27
30 26 23 19 16 15 14 9 2 4 8 12 16 20 22 24 25 29 29 30 31 30 38 37 34 39 43 47 51 62 58 54 52 54 43 44 52 47 39 37 34 26 28
27 23 23 18 12 8 7 4 2 7 11 15 17 19 18 26 22 31 28 33 33 34 31 28 33 38 38 40 64 59 58 52 51 54 53 43 38 33 33 32 32 30 25
25 22 19 16 10 9 6 3 4 8 12 16 19 21 24 20 27 28 32 35 35 36 29 34 41 43 48 48 61 53 58 53 50 53 48 49 50 48 40 32 27 23 26
24 23 18 15 11 8 4 1 5 7 12 17 18 23 23 23 28 30 33 37 41 25 32 41 48 52 48 53 57 49 55 51 50 48 49 49 49 48 44 41 36 25 25
Wind_Direction_850mb
72 59 7 64 159 197 184 179 191 204 195 217 213 207 224 221 241 249 266 282 282 295 302 306 315 311 319 324 310 310 323 333 350 329 319 332 342 359 302 315 338 336 319
80 167 234 231 143 138 163 182 190 186 194 217 210 221 243 241 248 251 277 283 294 300 308 315 323 319 328 328 315 337 341 338 345 337 335 337 335 309 340 347 347 321 325
90 124 141 154 153 184 203 217 222 212 206 229 252 255 275 248 245 268 274 296 304 311 317 320 322 330 334 323 337 338 335 338 339 339 344 332 316 330 335 340 336 344 338
115 120 132 109 107 111 225 222 215 225 195 200 238 258 234 247 257 246 281 301 318 330 332 316 331 323 330 323 331 329 328 329 335 337 340 329 330 326 322 329 336 337 340
101 109 107 103 101 105 151 151 187 213 220 224 215 188 224 293 289 279 295 335 343 342 334 301 322 312 330 331 321 323 326 326 334 333 332 331 332 325 323 316 332 336 336
101 101 101 98 97 99 88 100 111 141 175 212 219 233 262 252 253 288 323 279 298 267 294 296 314 309 321 318 327 321 314 318 324 327 330 325 326 328 313 321 330 332 335
118 113 112 111 110 105 92 89 99 109 119 150 210 250 279 303 304 310 304 317 316 313 288 294 304 304 323 322 319 326 326 322 322 329 326 323 318 322 329 319 324 318 333
135 135 134 130 128 125 129 125 110 109 127 146 318 311 291 294 291 306 325 354 303 301 291 295 305 318 314 314 312 311 313 323 320 321 325 318 318 318 329 320 321 318 327
142 144 142 140 136 133 130 133 142 147 120 34 1 348 343 339 326 328 332 304 310 310 309 327 329 313 312 308 315 311 320 319 316 314 319 317 320 315 320 323 322 324 322
150 149 148 144 141 140 138 136 140 127 132 34 344 359 326 323 323 333 337 326 325 336 337 336 331 329 330 319 321 322 325 322 316 321 313 309 313 311 315 318 319 322 321
154 154 150 146 147 140 145 147 141 95 12 66 301 320 319 312 329 319 323 336 343 351 347 344 333 329 331 320 313 318 314 303 313 317 310 308 309 311 315 322 326 319 324
156 157 153 150 148 151 151 159 163 169 223 301 308 318 326 338 324 341 337 336 343 346 336 331 329 329 325 323 315 304 302 316 308 319 302 309 317 317 317 319 322 314 320
156 159 156 158 159 160 163 167 148 196 257 280 304 333 356 348 323 318 330 335 328 348 350 349 350 343 344 313 308 309 315 317 313 324 312 315 310 318 320 319 319 318 319
157 161 161 166 166 170 172 173 199 225 281 325 336 351 297 330 343 326 309 332 351 347 344 348 347 335 326 323 317 322 324 327 331 318 313 318 317 326 317 316 322 322 318
162 161 166 170 173 175 180 186 217 272 315 331 301 303 342 324 320 331 333 329 329 333 337 339 342 317 328 319 346 350 348 344 333 325 322 317 310 311 310 315 320 327 324
166 168 170 174 182 188 189 199 247 307 300 312 341 331 327 325 323 328 330 326 317 323 337 331 327 325 330 336 345 353 351 342 338 330 321 316 317 312 309 308 314 324 323
165 164 170 177 187 191 194 225 253 280 307 17 338 319 325 324 322 319 324 327 321 322 324 322 324 319 328 329 328 336 348 347 333 328 328 323 319 312 312 313 313 320 307
148 158 168 175 184 183 201 221 244 266 27 340 320 322 320 319 320 328 325 315 320 321 319 323 321 316 326 324 321 332 337 331 333 329 327 325 316 316 316 316 318 321 316
146 156 167 177 176 194 201 213 57 59 336 318 317 315 320 320 324 323 316 324 327 326 332 322 315 308 326 312 315 325 331 332 322 322 324 320 318 311 307 311 314 318 316
141 149 163 161 174 189 187 129 69 227 306 293 309 321 324 322 319 331 323 322 324 325 313 321 329 331 322 321 325 333 334 331 328 327 327 321 316 311 309 311 316 312 314
142 149 151 156 170 177 164 164 163 234 276 321 316 326 318 316 336 308 320 333 332 330 332 331 334 321 357 351 343 336 330 326 327 329 329 325 320 316 317 318 320 310 313
143 146 148 162 172 153 125 171 241 342 330 327 335 319 321 320 317 326 333 335 335 340 331 333 346 343 346 336 327 325 335 341 344 343 345 348 343 340 342 334 323 335 328
147 151 156 148 151 164 169 101 313 345 331 341 327 326 323 328 315 330 327 339 330 332 341 340 335 328 327 324 323 337 343 345 350 345 342 341 353 354 348 333 336 335 326
151 150 152 155 155 153 114 136 317 325 346 326 325 323 331 325 336 338 337 322 321 314 321 328 334 338 335 330 339 342 343 345 350 351 358 349 335 336 338 339 340 333 327
152 158 154 159 162 134 171 187 291 347 338 329 350 328 315 332 342 336 330 328 315 312 321 341 351 346 345 340 342 342 343 340 348 346 350 354 357 359 356 347 338 341 329
158 156 152 144 155 161 171 252 326 334 340 345 330 334 345 343 337 335 342 336 324 327 351 354 348 345 342 341 343 344 346 347 342 343 351 352 354 352 351 350 348 336 326